Weather observations for the past three days for
Concord Regional Airport
Imperial (Metric)
Date Time (edt) Wind (mph) Vis. (mi.) Weather Sky Cond. Temperature (ºF) Relative Humidity Wind Chill (°F) Heat Index (°F) Pressure Precipitation (in)
Air Dwpt 6 hour altimeter (in) sea level (mb) 1 hr 3 hr 6 hr
Max. Min.
14 08:50 Calm 10.00 Fair CLR 82.4 71.6 70% 87 30.18 0.0
14 07:50 Calm 10.00 Fair CLR 80.6 71.6 74% 85 30.17 0.0
14 06:50 Calm 10.00 Fair CLR 73.4 71.6 94% 30.16 0.0
14 06:45 Calm 10.00 Fair CLR 73.4 69.8 89% 30.16 0.0
14 06:25 Calm 10.00 Fair CLR 71.6 69.8 94% 30.16 0.0
14 06:05 Calm 10.00 Fair CLR 71.6 68 88% 30.16 0.0
14 05:45 Calm 10.00 Fair CLR 71.6 69.8 94% 30.15 0.0
14 05:25 Calm 10.00 Fair CLR 71.6 69.8 94% 30.15 0.0
14 05:05 Calm 10.00 Fair CLR 73.4 69.8 89% 30.15 0.0
14 04:45 Calm 10.00 Fair CLR 73.4 69.8 89% 30.15 0.0
14 04:25 Calm 10.00 Fair CLR 71.6 69.8 94% 30.15 0.0
14 04:05 Calm 10.00 Fair CLR 73.4 69.8 89% 30.15 0.0
14 03:45 Calm 10.00 Fair CLR 73.4 69.8 89% 30.15 0.0
14 03:25 Calm 10.00 Fair CLR 73.4 69.8 89% 30.16 0.0
14 03:05 Calm 10.00 Fair CLR 73.4 69.8 89% 30.16 0.0
14 02:45 Calm 10.00 Fair CLR 75.2 69.8 83% 75 30.16 0.0
14 02:25 Calm 10.00 Fair CLR 75.2 69.8 83% 75 30.16 0.0
14 02:05 Calm 10.00 Fair CLR 75.2 69.8 83% 75 30.17 0.0
14 01:45 Calm 10.00 Fair CLR 77 69.8 79% 79 30.17 0.0
14 01:25 Calm 10.00 Fair CLR 77 69.8 79% 79 30.18 0.0
14 01:05 Calm 10.00 Fair CLR 78.8 69.8 74% 81 30.18 0.0
14 00:45 Calm 10.00 Fair CLR 77 69.8 79% 79 30.18 0.0
14 00:25 Calm 10.00 Fair CLR 78.8 69.8 74% 81 30.18 0.0
14 00:05 Calm 10.00 Fair CLR 80.6 69.8 70% 84 30.18 0.0
13 22:50 Calm 10.00 Fair CLR 82.4 71.6 70% 87 30.18 0.0
13 21:50 Calm 10.00 Fair CLR 82.4 69.8 66% 86 30.18 0.0
13 20:50 Calm 10.00 Fair CLR 87.8 69.8 55% 93 30.17 0.0
13 19:50 SE 3 10.00 Fair CLR 89.6 69.8 52% 95 30.16 0.0
13 17:50 Calm 10.00 A Few Clouds FEW060 91.4 69.8 49% 97 30.16 0.0
13 16:50 Calm 10.00 Partly Cloudy SCT060 93.2 64.4 39% 95 30.15 0.0
13 14:55 NE 3 10.00 Partly Cloudy SCT060 93.2 66.2 41% 96 30.18 0.0
13 13:50 Calm 10.00 Partly Cloudy SCT046 89.6 68 49% 93 30.2 0.0
13 12:50 Calm 10.00 Partly Cloudy SCT028 87.8 68 52% 91 30.22 0.0
13 10:50 N 5 10.00 Partly Cloudy SCT013 82.4 69.8 66% 86 30.23 0.0
13 09:50 N 9 10.00 Partly Cloudy SCT010 80.6 69.8 70% 84 30.25 0.0
13 08:50 Calm 10.00 Mostly Cloudy BKN008 75.2 69.8 83% 75 30.25 0.0
13 07:50 Calm 10.00 Overcast OVC006 73.4 69.8 89% 30.23 0.0
13 06:50 N 5 10.00 Overcast OVC006 71.6 69.8 94% 30.21 0.0
13 06:45 N 3 10.00 Overcast OVC006 71.6 69.8 94% 30.21 0.0
13 06:25 N 3 10.00 Overcast OVC006 71.6 69.8 94% 30.2 0.0
13 06:05 N 6 10.00 Overcast OVC006 71.6 69.8 94% 30.19 0.0
13 05:45 NW 5 10.00 Overcast OVC006 71.6 69.8 94% 30.19 0.0
13 05:25 NW 5 10.00 Mostly Cloudy BKN008 71.6 69.8 94% 30.18 0.0
13 05:05 N 5 10.00 Overcast OVC008 71.6 69.8 94% 30.18 0.0
13 04:45 NW 5 10.00 Overcast OVC006 71.6 69.8 94% 30.18 0.0
13 04:25 Calm 10.00 Overcast OVC004 71.6 69.8 94% 30.18 0.0
13 04:05 Calm 10.00 Overcast OVC004 71.6 69.8 94% 30.18 0.0
13 03:45 NW 6 10.00 Overcast OVC004 71.6 69.8 94% 30.18 0.0
13 03:25 NW 6 10.00 Overcast OVC006 71.6 69.8 94% 30.17 0.0
13 03:05 NW 6 10.00 Mostly Cloudy BKN008 71.6 69.8 94% 30.18 0.0
13 02:45 NW 3 10.00 Fair CLR 71.6 69.8 94% 30.18 0.0
13 02:25 N 3 10.00 Fair CLR 71.6 69.8 94% 30.18 0.0
13 02:05 Calm 10.00 Fair CLR 71.6 69.8 94% 30.18 0.0
13 01:45 Calm 10.00 Fair CLR 71.6 69.8 94% 30.18 0.0
13 01:25 Calm 10.00 Fair CLR 71.6 69.8 94% 30.19 0.0
13 01:05 Calm 10.00 Partly Cloudy SCT035 71.6 69.8 94% 30.19 0.0
13 00:45 NW 3 10.00 Partly Cloudy SCT035 73.4 71.6 94% 30.19 0.0
13 00:25 Calm 7.00 Fair CLR 71.6 71.6 100% 30.2 0.0
13 00:05 Calm 10.00 Fair CLR 73.4 71.6 94% 30.19 0.0
12 22:00 Calm 10.00 Partly Cloudy SCT015 75.2 71.6 89% 75 30.17 0.0
12 21:15 Calm 10.00 Partly Cloudy SCT015 77 71.6 83% 78 30.15 0.0
12 19:55 N 9 G 20 10.00 Partly Cloudy SCT028 SCT033 78.8 71.6 79% 82 30.14 0.0
12 18:55 NE 6 G 24 10.00 Mostly Cloudy BKN011 BKN034 78.8 71.6 79% 82 30.13 0.0
12 17:55 E 6 G 24 10.00 Overcast SCT009 OVC100 78.8 71.6 79% 82 30.13 0.0
12 16:50 NE 7 G 24 10.00 Overcast BKN009 OVC095 78.8 73.4 84% 82 30.12 0.0
12 16:00 E 5 G 21 7.00 Thunderstorm Light Rain BKN014 OVC023 78.8 73.4 84% 82 30.13 0.0
12 14:50 N 10 G 16 7.00 Overcast OVC025 80.6 71.6 74% 85 30.13 0.0
12 13:50 N 7 G 15 5.00 Fog/Mist BKN009 BKN019 OVC025 78.8 73.4 84% 82 30.13 0.0
12 12:50 N 8 5.00 Fog/Mist BKN009 OVC025 80.6 73.4 79% 85 30.14 0.0
12 11:50 N 7 5.00 Fog/Mist OVC009 78.8 73.4 84% 82 30.15 0.0
12 10:50 NE 8 5.00 Fog/Mist BKN008 OVC028 78.8 73.4 84% 82 30.13 0.0
12 09:50 NE 6 4.00 Fog/Mist SCT006 OVC031 75.2 71.6 89% 75 30.13 0.0
12 08:50 NE 8 4.00 Light Rain Fog/Mist SCT015 OVC040 77 69.8 79% 79 30.12 0.0
12 07:50 NE 7 7.00 Overcast SCT038 OVC046 75.2 66.2 74% 77 30.11 0.0
12 06:50 Calm 10.00 Overcast OVC055 75.2 66.2 74% 77 30.08 0.0
12 06:45 N 3 10.00 Thunderstorm in Vicinity OVC055 75.2 66.2 74% 77 30.08 0.0
12 06:25 N 3 10.00 Thunderstorm in Vicinity SCT046 OVC055 75.2 66.2 74% 77 30.08 0.0
12 06:05 Calm 10.00 Overcast BKN046 OVC055 75.2 66.2 74% 77 30.08 0.0
12 05:45 N 6 10.00 Overcast SCT046 BKN055 OVC070 75.2 66.2 74% 77 30.07 0.0
12 05:25 Calm 10.00 Thunderstorm in Vicinity SCT055 OVC070 75.2 66.2 74% 77 30.08 0.0
12 05:05 Calm 10.00 Overcast BKN070 OVC080 75.2 68 78% 76 30.08 0.0
12 04:45 Calm 10.00 Overcast BKN050 BKN060 OVC080 75.2 68 78% 76 30.07 0.0
12 04:25 Calm 10.00 Overcast BKN050 OVC070 75.2 68 78% 76 30.07 0.0
12 04:05 N 3 10.00 Overcast SCT050 OVC070 75.2 68 78% 76 30.06 0.0
12 03:45 Calm 10.00 Overcast OVC070 75.2 68 78% 76 30.06 0.0
12 03:25 Calm 10.00 Overcast OVC070 75.2 68 78% 76 30.06 0.0
12 03:05 NW 3 10.00 Overcast OVC070 73.4 68 83% 30.06 0.0
12 02:45 Calm 10.00 Overcast BKN080 OVC100 73.4 69.8 89% 30.05 0.0
12 02:25 Calm 10.00 Overcast SCT080 OVC100 73.4 68 83% 30.06 0.0
12 02:05 N 3 10.00 Mostly Cloudy BKN100 73.4 68 83% 30.06 0.0
12 01:45 Calm 10.00 Mostly Cloudy SCT075 BKN100 73.4 68 83% 30.06 0.0
12 01:25 Calm 10.00 Overcast SCT075 OVC090 73.4 66.2 78% 30.07 0.0
12 01:05 Calm 10.00 Overcast SCT075 OVC090 73.4 66.2 78% 30.07 0.0
12 00:45 Calm 10.00 Mostly Cloudy SCT075 BKN090 73.4 66.2 78% 30.07 0.0
12 00:25 Calm 10.00 Overcast OVC090 75.2 64.4 69% 77 30.07 0.0
12 00:05 Calm 10.00 Mostly Cloudy SCT075 BKN090 73.4 64.4 74% 30.07 0.0
11 21:55 Calm 10.00 Fair CLR 78.8 64.4 61% 81 30.04 0.0
11 20:55 Calm 10.00 Fair CLR 82.4 62.6 51% 83 30.05 0.0
11 19:50 E 5 G 17 10.00 Fair CLR 87.8 60.8 40% 88 30.04 0.0
11 18:50 E 5 G 17 10.00 Fair CLR 87.8 59 38% 87 30.03 0.0
11 17:50 N 8 G 20 10.00 Fair CLR 89.6 57.2 33% 88 30.02 0.0
11 16:50 N 10 G 20 10.00 Fair CLR 89.6 57.2 33% 88 30.02 0.0
11 15:50 N 10 G 17 10.00 Fair CLR 89.6 59 36% 89 30.02 0.0
11 14:50 NE 12 G 24 10.00 Fair CLR 89.6 57.2 33% 88 30.03 0.0
11 13:50 NE 12 G 24 10.00 Fair CLR 87.8 57.2 35% 87 30.05 0.0
11 12:50 N 12 G 24 10.00 Fair CLR 86 57.2 38% 85 30.05 0.0
11 11:50 N 13 G 23 10.00 Fair CLR 84.2 57.2 40% 83 30.07 0.0
11 10:50 NE 8 G 24 10.00 Fair CLR 82.4 57.2 42% 82 30.07 0.0
11 09:50 N 14 G 21 10.00 Fair CLR 80.6 57.2 45% 81 30.07 0.0
Date Time (edt) Wind (mph) Vis. (mi.) Weather Sky Cond. Air Dwpt Max. Min. Relative Humidity Wind Chill (°F) Heat Index (°F) altimeter (in) sea level (mb) 1 hr 3 hr 6 hr
6 hour
Temperature (ºF) Pressure Precipitation (in)